Temp
23 23 23 24 24 24 24 24 24 23 23 24 24 24 24 24 24 24 24 24 25 26 26 26 26 27 27 27 27 27 27 27 27 26 26 25 25 25 25 25 25 25 25 25 26 27 27 27 27 27 27 27 27 27 27 27 28 27 28 28 28 29 29 29 28 28 28 29 29 29 28 28 28 28 28 28 28 27 27 27 27 27 27 26 26
24 24 23 23 23 23 23 23 23 23 23 23 24 24 24 24 24 24 24 24 25 25 26 26 27 27 27 27 27 27 27 27 27 26 26 26 25 25 25 25 25 25 25 25 26 27 27 27 27 27 27 27 27 27 27 28 28 27 27 28 28 28 29 29 28 28 28 29 29 29 29 29 28 28 28 28 28 27 27 27 27 27 27 26 26
25 25 24 23 24 24 23 23 23 24 24 23 24 24 24 24 23 23 23 24 24 25 25 26 26 27 27 27 27 27 27 27 27 26 26 26 26 26 26 25 25 25 25 25 25 26 27 27 27 27 27 27 27 28 28 28 27 27 28 28 28 28 29 29 29 28 28 29 29 29 29 29 29 29 29 29 28 28 27 27 27 27 27 27 27
24 24 24 24 24 24 24 24 24 24 24 24 24 24 24 24 23 23 23 23 24 24 25 25 25 26 26 26 26 27 27 27 27 27 27 27 26 26 26 26 25 25 25 25 26 26 27 27 27 27 27 27 28 28 28 28 28 27 27 27 28 28 28 28 29 29 29 29 29 29 29 29 29 29 29 29 28 28 28 28 28 28 27 27 27
24 24 24 24 24 25 25 25 24 24 24 24 24 24 24 24 23 23 23 23 23 23 24 25 25 25 25 25 26 26 26 27 27 26 26 26 26 27 26 26 26 25 25 25 26 26 27 27 27 27 27 27 28 28 28 28 28 28 27 27 28 28 28 29 29 29 29 28 28 28 28 28 28 28 29 29 28 28 28 28 28 28 28 27 27
25 25 25 25 25 25 25 25 25 24 24 24 24 24 24 24 23 23 23 23 23 23 23 24 24 24 24 25 25 25 25 26 27 26 26 26 26 26 26 26 26 25 25 26 26 26 27 27 27 27 27 27 28 28 28 28 28 28 29 29 29 29 29 29 29 29 28 28 28 28 28 28 28 28 28 28 28 28 28 28 28 28 28 27 27
26 26 26 26 25 25 25 25 25 25 24 24 24 24 24 23 23 23 23 23 23 23 23 23 23 24 24 24 24 25 25 25 26 26 26 26 26 26 26 26 26 26 26 26 26 26 27 27 27 27 27 27 27 27 28 28 28 28 29 29 29 29 29 29 29 29 28 28 28 28 28 28 28 28 28 28 28 28 28 28 28 28 27 27 27
26 26 26 25 25 25 25 25 25 25 24 24 24 23 23 23 23 23 23 23 22 22 22 23 23 23 23 24 24 24 24 25 25 26 26 26 26 26 26 26 26 26 26 26 26 26 27 27 27 27 27 27 27 27 28 28 28 28 28 29 29 29 29 28 28 28 28 28 28 28 28 28 28 28 28 28 28 28 28 28 28 27 27 27 27
26 26 25 25 25 25 25 25 25 24 24 23 23 23 23 23 23 23 22 22 22 22 22 22 22 22 22 23 23 23 23 23 25 25 25 26 26 26 26 27 26 26 26 26 26 26 27 27 27 27 27 27 27 27 28 28 28 28 29 29 29 29 28 28 28 28 28 28 28 28 28 28 28 28 28 28 28 28 28 28 28 27 27 27 27
26 25 25 25 25 25 25 25 24 24 23 23 22 23 23 23 22 22 22 22 22 22 22 21 21 21 22 22 22 22 22 22 24 25 25 26 26 26 26 26 26 26 27 27 27 27 27 27 27 27 27 27 27 27 27 28 28 28 28 28 28 28 28 28 27 27 27 27 27 27 27 27 27 28 28 28 28 28 28 28 27 27 27 27 27
25 25 25 25 25 25 25 24 24 23 23 22 22 23 23 22 22 22 22 22 21 21 21 21 21 21 21 21 21 21 21 21 23 24 25 26 26 26 26 26 26 26 26 27 27 27 27 27 27 27 27 27 27 27 27 27 28 28 28 28 27 27 27 27 27 27 26 26 26 27 27 27 27 27 28 28 28 28 28 28 28 27 27 26 26
25 25 25 25 25 25 24 24 24 23 23 22 22 22 22 22 22 22 21 21 21 21 20 20 20 20 20 21 21 21 21 21 22 23 24 25 25 25 26 26 26 26 26 27 27 27 28 28 27 27 27 27 27 27 27 27 27 27 27 27 27 27 27 26 26 26 26 26 26 26 26 27 27 27 27 28 28 27 27 27 27 27 26 26 25
25 25 25 25 25 24 24 24 24 24 23 23 22 22 22 22 22 22 21 21 21 20 20 20 20 20 20 20 21 21 21 20 21 23 24 25 25 25 25 26 26 26 26 27 27 27 27 27 28 28 27 27 27 27 27 27 27 27 27 27 27 27 26 26 26 26 26 26 25 26 26 26 26 26 27 27 27 26 26 26 26 26 25 25 25
25 25 25 25 24 24 24 24 24 24 24 23 23 23 23 23 22 22 21 21 21 20 20 20 20 20 20 20 21 21 21 20 21 22 24 25 25 25 25 25 26 26 26 26 26 26 26 26 27 27 27 27 27 27 27 27 26 26 26 26 26 26 26 25 25 25 26 25 25 25 25 26 26 26 26 26 26 26 25 25 25 25 25 25 24
25 25 25 24 24 24 24 24 24 24 24 24 24 24 23 23 22 22 21 21 21 20 20 20 20 20 20 20 20 20 20 20 21 21 23 24 24 24 25 25 25 25 25 25 26 26 26 25 25 26 26 27 27 26 26 26 26 25 25 25 25 24 24 24 24 24 25 25 25 25 25 25 25 25 25 25 25 25 25 25 24 24 24 24 24
25 25 25 24 24 24 24 24 24 24 24 24 24 24 23 23 22 22 21 21 21 20 20 20 20 20 19 19 19 20 20 20 20 20 22 23 23 24 24 24 24 24 24 24 25 25 25 25 25 25 25 26 27 26 26 26 25 25 25 24 24 23 24 24 24 24 23 23 24 24 25 25 25 25 25 25 24 25 24 24 24 24 23 23 23
25 25 25 24 24 24 24 24 24 24 24 24 24 24 23 22 22 22 21 21 21 20 20 20 19 19 19 19 19 20 20 20 20 20 22 23 23 23 23 23 23 24 24 24 24 24 24 24 24 24 24 25 25 26 26 25 25 24 24 24 23 23 23 24 23 23 23 23 23 24 24 24 24 24 24 24 24 24 24 23 23 23 23 22 22
25 25 25 25 24 24 24 24 24 24 24 24 24 24 23 22 22 22 21 21 21 20 20 20 19 19 19 19 20 20 19 19 20 20 22 22 23 23 22 23 23 23 23 23 23 23 23 24 24 24 24 24 24 25 25 25 24 23 23 23 23 23 23 23 23 23 23 23 23 24 24 24 24 24 24 24 24 24 23 23 23 23 23 22 22
25 25 25 25 25 25 24 24 24 24 24 24 23 23 23 22 22 22 21 21 21 20 20 20 20 19 19 19 20 19 19 20 20 21 21 22 22 22 22 22 23 23 23 22 22 22 23 23 23 23 24 24 24 24 24 24 23 22 22 22 23 23 23 23 22 22 23 23 22 23 24 24 24 24 24 24 24 24 23 23 23 23 23 22 22
26 25 25 25 25 24 24 24 24 24 23 23 23 23 23 22 22 22 21 21 21 21 20 20 19 20 19 20 19 20 20 21 21 21 22 21 22 22 22 22 22 21 21 21 21 22 22 23 23 23 23 23 23 23 23 23 23 22 22 22 22 23 23 23 22 22 22 22 22 22 23 23 24 24 24 23 23 23 23 23 23 23 22 22 22
25 25 25 25 25 24 24 24 24 23 23 23 23 23 22 22 22 22 21 21 21 21 20 20 20 19 20 20 20 20 20 21 21 22 22 21 22 22 21 21 21 20 20 20 21 22 22 22 23 23 23 23 23 23 22 22 22 22 22 22 22 22 22 22 22 22 22 22 21 21 22 22 23 23 23 23 23 23 23 23 23 22 22 22 22
25 25 25 25 24 24 24 24 24 23 23 23 23 22 22 22 22 22 22 21 21 21 20 20 20 20 19 19 20 20 20 20 21 21 21 21 21 21 21 21 20 20 20 21 22 22 22 22 22 22 22 22 22 22 22 22 22 21 21 22 22 22 21 21 21 21 21 21 21 21 21 21 22 22 22 23 23 23 22 22 22 22 22 22 22
25 24 24 24 24 24 24 24 24 23 23 23 23 23 22 22 22 22 22 22 22 21 21 20 20 20 20 19 20 20 20 20 20 21 21 21 21 21 21 20 20 21 21 21 22 22 22 22 22 21 21 21 21 21 21 21 21 21 21 21 21 21 20 20 20 21 21 21 21 21 21 21 21 22 22 22 22 22 22 22 21 21 21 22 22
25 25 24 24 24 24 24 24 24 24 23 23 22 23 22 22 22 22 21 21 21 21 21 21 20 20 20 19 20 20 20 20 20 20 20 21 21 21 21 21 21 21 21 21 21 21 22 22 21 21 21 21 21 21 21 21 21 21 21 20 20 20 20 20 20 21 21 21 21 21 21 21 21 22 22 22 22 21 21 21 22 22 22 22 22
25 25 24 25 24 24 24 24 24 24 24 23 23 22 22 22 22 22 21 21 21 21 21 21 21 20 20 20 20 20 20 20 20 20 20 20 20 20 20 20 20 20 20 20 20 21 21 21 21 21 21 21 21 21 20 20 21 21 20 20 20 20 20 20 20 20 20 21 21 21 21 21 21 21 21 21 21 21 21 21 22 22 22 22 22
25 25 25 25 25 24 24 24 24 24 24 23 23 23 22 22 22 21 21 21 21 21 21 21 21 21 21 20 20 20 20 21 20 20 20 20 20 20 20 20 20 20 20 19 19 20 20 20 20 20 21 21 21 21 20 20 20 20 20 20 20 19 20 20 20 20 20 21 21 21 20 21 21 21 21 21 21 21 21 21 21 21 21 21 21
24 25 25 25 25 25 24 24 24 24 24 24 23 23 23 23 22 22 22 22 22 22 22 22 22 22 21 21 20 20 20 20 20 20 20 20 20 20 20 20 20 19 19 19 19 19 20 20 20 20 20 20 20 20 20 20 20 20 20 20 20 20 20 20 20 20 21 21 21 20 20 21 21 21 21 21 21 21 21 21 21 21 20 20 20
23 24 25 25 25 25 24 24 24 24 24 24 24 24 23 23 23 23 22 22 22 22 22 22 22 22 22 22 21 20 20 20 20 20 20 20 20 20 20 19 19 19 19 19 19 19 19 19 19 19 19 19 19 19 19 19 19 20 20 20 20 20 20 20 20 20 20 21 21 21 21 21 21 21 21 21 21 21 20 20 20 20 20 20 20
24 24 25 25 26 25 24 24 24 24 24 24 24 23 23 23 23 23 23 22 22 22 22 22 22 22 22 22 21 21 21 21 21 21 20 20 20 20 20 20 19 19 19 19 18 18 18 18 18 19 19 19 19 19 19 19 20 20 20 20 20 20 20 20 20 20 21 21 21 21 21 20 20 20 20 20 21 20 20 19 19 20 20 20 20
23 24 25 26 26 26 25 24 24 24 24 24 24 23 23 23 23 22 22 22 22 22 22 22 22 22 22 22 22 22 21 21 21 21 21 21 20 20 20 20 19 19 19 19 19 19 19 19 19 19 19 19 19 20 20 20 20 20 20 21 21 21 21 20 21 21 21 21 21 21 21 20 20 20 20 20 20 20 19 19 19 19 20 20 20
22 23 25 26 26 26 25 25 25 24 24 24 24 23 23 23 22 22 22 22 22 22 22 22 22 22 21 21 21 21 21 21 21 21 21 21 20 20 20 20 19 19 19 19 19 19 19 19 19 19 19 20 20 20 20 21 21 21 21 21 21 22 22 22 21 21 21 21 20 20 20 20 20 19 19 19 19 19 19 20 20 20 20 20 20
22 23 25 26 26 26 26 26 25 25 24 24 24 24 23 22 22 21 22 22 22 22 22 21 21 21 21 21 21 21 21 21 21 21 20 20 20 20 20 19 19 19 19 19 19 19 19 19 19 20 20 20 21 21 21 21 21 21 21 22 22 22 22 22 21 21 21 20 20 20 19 19 19 19 19 19 19 19 19 20 20 20 20 20 19
22 22 24 25 26 26 26 26 26 25 25 25 24 24 24 23 22 21 20 21 21 21 22 21 21 21 21 21 21 21 21 21 21 20 20 20 19 19 19 19 19 19 19 18 18 19 20 20 20 20 21 21 21 21 22 22 22 22 22 23 22 22 21 20 20 20 20 19 19 19 19 19 19 18 18 19 19 19 19 19 19 19 19 19 19
20 21 23 25 25 25 26 26 26 26 25 25 25 25 24 25 24 22 20 20 20 20 21 21 21 20 20 20 20 20 20 20 20 20 19 19 19 19 19 19 19 18 18 18 18 19 20 21 21 22 22 22 23 23 23 23 23 22 22 22 22 21 20 20 20 19 19 19 19 19 19 18 18 18 18 19 19 19 19 19 19 19 19 19 19
21 21 21 21 21 22 23 24 25 26 25 25 25 25 25 25 25 24 22 21 21 20 20 20 20 20 20 20 20 20 20 20 20 20 19 19 19 19 18 18 18 18 18 18 18 19 21 22 23 23 23 23 23 23 23 22 22 22 22 21 21 21 20 20 19 19 19 19 18 18 18 18 18 18 19 19 19 19 19 19 19 19 19 18 18
21 20 19 19 20 21 20 21 23 24 25 25 25 25 25 25 25 25 24 23 23 22 21 20 20 20 20 20 20 20 20 20 20 20 20 20 20 19 19 19 19 19 19 19 19 20 21 22 23 23 23 23 23 22 22 22 22 21 21 21 21 20 20 20 20 19 18 18 18 18 18 18 18 18 19 19 20 20 20 20 19 19 19 18 18
18 19 20 21 22 22 22 21 22 22 23 24 25 25 25 25 26 26 26 25 25 25 22 20 20 19 19 19 19 19 19 19 19 19 19 19 19 19 19 19 20 21 21 20 20 21 21 22 22 22 22 22 22 22 22 22 21 21 21 21 20 20 20 20 20 19 18 18 18 18 18 18 19 19 19 19 20 20 20 20 20 19 19 18 18
19 21 22 22 22 22 22 22 22 22 22 24 25 25 25 25 25 26 26 26 26 25 22 20 20 19 19 19 19 19 19 18 18 17 18 18 18 18 19 19 20 21 22 21 21 21 22 22 22 22 22 22 22 22 21 21 21 21 21 20 20 20 20 19 19 19 19 18 18 19 19 19 19 19 19 20 20 21 20 20 20 20 19 19 19
21 23 23 21 21 21 21 21 22 22 23 24 25 24 25 25 25 25 26 26 26 25 23 21 20 20 19 19 18 18 17 17 17 16 17 17 17 18 18 19 20 21 21 22 21 21 21 21 22 22 22 22 22 22 21 21 21 21 21 20 20 19 19 19 19 19 19 18 19 20 20 20 20 20 20 21 21 21 21 21 20 20 20 19 19
23 23 22 21 20 20 21 21 21 21 22 23 24 24 25 25 25 25 25 25 25 25 24 23 22 22 21 20 19 18 17 16 16 16 16 16 16 17 18 19 20 21 21 21 21 21 21 21 22 22 22 22 22 22 22 22 21 21 21 21 20 19 19 19 19 19 19 19 20 21 21 21 21 21 21 21 21 21 21 21 21 21 20 20 20
22 22 21 21 20 20 21 20 20 20 20 22 23 24 25 25 25 25 25 25 25 25 25 24 24 23 22 21 21 21 19 18 18 18 18 17 17 17 18 19 20 20 21 21 21 21 21 22 22 22 22 22 22 22 21 21 21 21 20 20 20 20 20 20 20 20 20 21 21 21 21 21 21 21 21 21 21 21 21 21 22 21 21 21 21
22 21 21 21 21 21 21 21 20 20 20 20 22 24 25 25 25 25 25 25 25 25 25 25 25 24 23 22 22 22 20 20 20 20 20 19 19 19 19 19 20 20 21 21 21 21 21 22 22 22 22 22 21 21 21 21 21 21 21 20 20 21 21 21 21 21 21 21 21 21 21 21 21 21 21 21 21 21 21 22 22 22 21 21 21
21 21 21 21 21 21 21 21 21 21 21 22 23 24 25 25 25 25 25 25 25 25 25 26 25 24 23 23 22 22 21 21 21 21 21 21 21 20 20 20 20 20 21 21 21 22 22 22 22 22 22 21 21 21 21 21 22 22 22 21 21 22 22 22 22 21 21 21 21 21 21 21 21 21 21 21 21 22 22 22 22 22 21 21 21
21 21 21 20 20 21 21 21 21 22 23 24 24 24 25 25 25 25 26 26 26 26 26 26 25 23 22 22 21 21 20 21 21 22 22 22 22 21 21 21 21 21 21 21 22 22 22 22 22 22 21 21 21 21 21 21 22 22 22 22 22 22 22 22 22 21 21 21 21 21 21 21 21 21 21 21 21 22 22 22 22 21 21 21 21
21 21 20 20 20 20 21 21 22 22 23 24 24 24 24 25 25 25 26 26 26 26 25 25 25 23 22 21 21 20 20 20 21 21 22 22 22 22 22 22 21 21 21 21 21 22 22 22 22 22 22 22 22 22 22 22 22 22 22 23 22 22 22 22 22 22 22 22 22 21 21 21 22 22 22 21 21 21 21 22 22 22 21 21 21
19 20 20 20 20 20 21 21 21 22 23 24 24 24 24 24 25 25 25 26 26 26 25 25 25 23 22 21 20 20 20 20 21 21 22 22 22 22 22 22 21 21 21 21 21 22 22 22 22 22 22 22 22 22 22 22 22 22 23 23 23 22 22 22 22 22 22 21 21 21 21 22 22 22 22 21 21 21 21 21 21 22 21 21 21
19 19 18 19 19 19 20 20 20 20 21 22 23 24 24 24 25 25 25 25 25 25 25 25 25 24 23 21 20 20 20 21 21 22 22 22 22 22 22 21 21 21 21 21 22 22 22 22 22 22 22 22 23 22 22 22 22 22 22 22 22 22 22 22 22 22 21 21 21 21 21 21 21 21 21 21 21 21 21 21 21 21 21 21 21
20 19 18 18 18 18 19 19 19 19 20 20 21 23 24 25 25 25 25 25 25 25 25 25 25 25 24 23 22 22 21 21 22 22 22 22 23 22 22 21 21 21 21 22 22 22 22 22 22 22 22 22 22 22 22 22 22 22 22 22 22 22 22 22 21 21 21 21 21 20 21 21 21 21 21 21 21 21 21 21 21 21 20 20 20
20 19 18 18 18 18 19 19 19 19 19 19 20 22 23 25 25 24 24 25 25 25 25 25 25 25 25 25 24 23 23 22 22 22 23 23 23 22 22 21 21 21 21 22 22 22 22 22 22 22 22 22 22 22 22 22 22 22 22 21 21 21 21 21 21 20 20 20 20 20 20 20 20 21 21 21 21 21 21 21 20 20 20 20 20
19 19 19 19 19 19 19 19 19 20 19 19 20 20 21 22 24 25 24 24 25 25 25 25 25 25 25 25 25 24 24 24 23 23 23 23 23 23 22 22 22 22 22 22 23 23 22 22 22 22 22 22 22 22 22 22 22 22 22 21 21 21 21 21 20 20 20 20 20 19 20 20 20 20 20 21 21 21 21 21 21 20 20 20 20
19 19 18 19 19 19 19 19 19 19 19 19 20 20 19 20 22 24 25 24 24 25 25 25 25 25 25 25 25 25 24 24 24 24 24 23 23 23 22 22 22 22 22 23 23 23 22 21 21 22 22 22 22 22 22 22 21 22 22 21 21 21 21 21 20 20 20 20 20 19 19 19 19 20 20 20 20 21 21 20 20 20 20 20 20
Height
769 769 769 769 769 771 775 778 780 782 784 785 786 787 789 790 791 792 793 795 797 799 800 801 802 801 801 801 802 803 805 807 809 810 812 814 815 818 819 820 822 824 826 828 829 831 832 833 833 833 834 834 834 835 836 836 836 837 839 839 839 839 838 838 839 839 838 838 838 839 839 839 840 840 840 840 841 841 842 842 842 842 842 842 843
766 768 768 769 769 770 773 775 778 780 782 783 784 785 787 788 790 791 791 792 794 796 797 797 797 797 797 798 798 800 801 803 806 807 809 811 813 816 817 818 820 822 824 826 827 828 829 830 831 831 832 833 833 834 834 835 835 836 838 839 840 840 838 838 838 838 838 838 838 838 838 838 838 838 839 839 839 840 841 841 841 841 841 841 841
765 766 767 768 769 771 772 773 776 778 780 782 782 783 785 786 789 790 790 791 792 792 793 792 793 792 792 794 795 797 799 800 802 804 806 809 811 813 815 816 818 820 822 823 825 826 827 827 828 829 831 832 832 832 833 833 834 835 836 838 839 839 838 837 836 836 837 837 837 837 837 837 837 837 838 838 838 838 839 839 840 840 840 840 840
764 765 766 768 769 770 771 772 775 777 778 780 780 781 782 784 787 787 787 788 788 788 788 789 790 789 789 791 792 794 796 797 799 801 803 805 808 810 813 814 816 818 819 821 823 824 825 825 826 827 828 829 830 830 831 832 833 834 836 837 837 837 837 836 835 835 836 836 836 837 837 836 836 837 837 837 837 838 838 838 838 839 839 839 839
764 765 766 768 769 770 771 772 774 776 777 778 778 779 780 782 783 784 784 785 785 785 785 785 786 786 787 788 789 790 792 794 796 798 800 802 805 807 809 811 813 815 817 819 820 821 822 823 824 825 826 826 827 828 829 830 832 833 835 835 835 835 835 835 834 834 835 835 836 836 836 836 836 836 837 837 837 837 837 837 837 837 837 837 837
764 765 766 767 768 769 770 771 772 774 775 776 777 777 778 779 779 780 781 781 782 782 781 782 782 783 784 785 786 788 790 791 792 794 796 799 802 804 806 808 810 812 814 816 818 819 820 821 822 822 823 824 825 826 827 828 829 830 831 832 832 833 833 833 833 833 834 834 835 835 835 836 836 836 836 836 836 836 836 836 836 836 836 835 835
762 764 765 766 767 768 769 769 770 772 773 774 775 775 775 775 776 776 777 777 778 778 778 778 779 779 781 782 783 785 787 789 789 790 792 795 798 801 803 805 808 810 812 814 815 817 817 818 819 820 821 821 823 824 825 826 827 828 828 829 830 831 831 831 832 832 832 833 833 834 834 834 834 834 835 835 835 834 834 834 834 834 834 834 833
760 762 763 765 766 767 767 768 769 770 771 771 772 772 772 773 773 773 774 774 774 774 774 775 775 776 777 778 779 781 784 786 787 787 789 791 794 797 799 802 804 807 809 811 813 814 815 816 817 817 818 819 821 822 823 824 825 825 826 827 828 828 829 830 830 830 831 831 832 832 832 832 832 832 833 833 833 832 833 833 832 831 831 831 831
758 760 762 763 764 765 766 766 767 768 769 769 769 769 770 770 770 770 770 770 770 769 770 770 771 772 773 774 775 777 780 782 783 785 786 788 790 793 795 798 801 803 806 807 809 811 812 813 814 815 816 817 819 820 821 822 823 823 824 825 825 826 826 827 828 829 830 830 830 831 831 831 831 831 831 831 831 830 830 830 829 829 829 828 828
757 758 760 761 762 763 764 765 765 766 766 766 766 766 766 767 767 767 766 765 765 764 765 765 766 767 769 769 771 774 777 779 780 782 784 785 787 790 792 795 798 800 802 804 806 808 809 811 812 813 815 815 817 818 819 820 821 821 822 823 823 824 824 825 826 827 828 829 829 829 829 829 829 829 829 829 829 828 828 828 827 826 826 826 825
755 757 758 759 760 761 762 763 763 763 764 764 764 763 763 763 763 763 763 761 760 760 760 760 761 763 764 765 767 770 773 777 778 780 781 782 785 787 790 793 795 797 799 801 803 805 807 808 810 811 812 814 815 816 817 818 819 820 821 821 822 823 823 824 825 826 827 827 828 828 828 828 828 828 827 827 827 826 826 825 825 824 824 823 822
754 755 756 757 758 759 760 760 760 761 761 762 761 761 761 761 760 760 759 757 756 754 754 754 756 758 760 761 763 765 769 775 777 778 779 781 783 785 788 791 793 794 796 798 801 802 804 806 807 809 810 812 814 815 815 816 817 818 819 820 821 822 822 823 823 824 825 826 826 826 826 826 826 826 826 826 825 825 824 823 823 822 822 821 821
752 753 754 755 756 756 758 758 758 759 759 760 760 759 759 759 758 757 756 754 752 750 749 750 752 754 755 757 759 761 766 772 775 776 777 779 781 783 786 789 791 792 794 796 798 800 801 803 804 806 808 809 811 812 813 814 815 816 817 818 819 820 821 822 822 823 824 824 824 824 824 825 825 824 825 824 824 823 822 821 821 820 819 819 818
751 752 753 754 754 755 755 756 756 757 757 757 758 757 757 756 756 755 753 751 749 747 747 748 749 751 752 754 756 758 762 767 771 774 775 777 779 782 784 787 789 790 792 794 796 797 799 801 802 803 805 806 808 809 810 811 812 813 815 816 817 819 820 821 822 822 822 822 822 822 823 823 823 822 823 823 822 822 821 820 819 818 818 817 816
750 751 751 752 753 753 753 754 754 755 755 755 755 755 755 754 753 752 751 749 748 747 747 748 748 749 750 751 754 756 760 764 769 772 773 775 778 780 782 785 787 789 791 792 794 795 797 799 800 801 802 803 805 806 807 808 809 810 812 813 814 815 817 819 821 821 821 821 820 820 820 821 821 821 821 821 821 820 819 818 817 816 815 814 813
749 750 750 750 751 751 752 753 753 753 753 753 753 753 753 752 751 750 749 748 747 746 746 746 746 747 748 750 752 754 758 762 767 770 771 773 776 779 781 783 786 788 790 791 792 794 795 797 798 799 800 801 803 804 805 805 806 807 808 809 811 812 812 814 816 817 819 819 819 819 818 818 819 819 819 819 819 818 817 816 815 814 813 811 810
748 748 749 749 749 750 750 751 751 751 752 751 751 751 751 750 750 749 749 748 747 746 745 744 744 745 747 750 752 753 756 761 766 769 770 772 775 777 780 782 785 787 789 790 791 792 794 795 796 797 798 799 801 802 802 803 803 805 806 807 808 809 809 810 812 813 815 816 816 817 816 816 816 816 816 816 816 816 815 813 812 812 810 808 807
746 746 747 748 748 748 749 749 749 750 750 750 750 750 749 749 749 748 748 747 747 746 745 744 744 745 747 750 752 753 756 760 765 768 769 771 773 776 778 781 783 786 787 789 790 790 791 793 793 794 795 797 798 799 800 800 801 802 803 803 804 804 805 808 809 810 811 812 813 813 813 813 814 813 813 813 813 813 812 810 810 810 808 805 804
745 745 746 746 746 747 747 747 748 748 748 748 749 748 748 748 748 748 748 748 747 747 746 746 746 747 749 751 752 754 757 759 763 766 767 770 772 774 777 779 781 784 786 787 788 788 789 790 791 791 793 794 796 797 798 799 799 799 800 800 800 801 802 805 806 807 808 809 810 810 810 810 811 810 810 810 810 810 809 807 807 807 805 803 801
744 745 745 745 746 746 746 746 746 746 747 747 747 747 747 747 747 748 748 748 748 747 748 748 748 748 749 751 752 754 756 758 761 764 765 768 771 773 775 777 779 782 785 787 787 786 787 787 787 788 789 791 792 794 795 796 796 796 797 797 797 797 800 802 803 804 805 806 806 807 807 807 807 807 807 807 807 806 805 805 804 803 802 799 798
743 744 744 744 745 745 744 745 745 745 745 745 745 746 746 746 747 747 747 748 748 748 749 748 749 749 750 751 752 754 756 758 761 763 765 767 769 771 773 775 778 782 785 786 785 784 783 783 783 784 785 787 789 790 792 793 794 794 794 794 794 796 798 799 800 802 803 803 804 804 804 804 804 804 804 804 803 803 802 801 800 799 798 796 795
742 743 743 743 744 744 744 744 744 744 744 744 744 745 745 745 746 747 747 748 748 748 749 749 749 750 750 751 753 754 757 759 761 763 765 767 768 770 772 774 777 780 782 782 781 780 780 780 780 781 782 784 786 787 788 790 791 791 791 792 793 795 796 797 798 799 799 800 801 801 801 801 801 801 801 801 800 799 798 797 796 795 794 792 791
742 742 742 742 742 742 743 743 743 743 743 743 744 744 744 745 746 746 747 747 748 749 749 749 749 750 751 753 753 754 756 759 760 762 764 766 767 769 771 773 776 778 778 777 776 776 776 777 778 779 781 782 783 784 785 786 787 788 789 790 791 793 794 795 797 797 797 798 798 798 798 799 799 798 798 798 797 796 795 794 792 791 789 787 787
741 741 741 741 741 741 741 741 742 742 743 743 743 743 744 745 745 745 746 747 748 749 749 750 751 751 752 753 753 754 756 758 759 761 763 764 766 767 769 771 773 774 774 774 773 773 773 775 777 778 779 780 781 782 783 784 784 785 786 788 789 790 792 793 795 796 796 796 796 796 796 796 796 796 795 794 794 793 791 790 789 787 786 784 783
740 740 741 740 740 741 740 740 741 741 741 742 742 743 743 744 744 745 746 746 748 749 749 750 751 752 753 754 754 754 755 756 758 760 762 763 765 766 768 769 771 772 772 772 772 772 773 775 776 777 778 778 779 780 781 782 783 783 784 786 787 788 789 791 792 793 793 794 794 794 794 794 793 793 792 791 791 789 788 787 785 783 782 781 780
739 739 740 740 740 740 740 740 740 740 741 741 741 742 743 743 743 745 745 746 747 747 748 749 750 751 753 754 755 755 754 755 757 759 761 762 763 765 766 767 768 770 770 771 771 771 773 774 775 776 776 777 778 779 779 780 781 782 783 784 785 786 787 788 789 790 790 791 791 792 792 792 791 791 790 789 788 787 786 785 783 782 781 780 779
742 740 739 739 739 739 739 739 739 739 740 740 740 741 741 742 742 743 744 745 745 746 746 747 749 750 751 753 755 756 756 756 757 758 760 761 761 762 763 765 766 768 768 769 769 770 771 773 774 775 776 776 777 778 778 779 780 780 780 781 782 782 784 785 786 787 787 788 788 789 789 789 789 788 788 787 787 786 785 784 783 782 781 780 779
744 743 741 740 739 738 737 738 738 738 738 739 739 739 740 740 741 741 742 743 743 744 745 745 746 748 749 750 752 754 755 756 756 757 758 759 759 760 761 763 764 765 766 767 768 769 770 771 772 774 774 775 776 776 777 777 777 777 777 778 778 779 781 782 784 784 785 785 786 786 787 787 786 786 786 786 785 785 784 783 782 782 781 780 779
741 742 741 739 737 736 735 735 735 735 736 737 737 738 738 739 739 740 740 741 742 742 743 744 745 746 747 748 750 751 752 753 754 755 756 757 757 758 759 760 762 763 764 765 766 768 769 770 771 771 772 773 774 773 774 774 774 774 775 776 777 778 778 780 781 782 782 783 784 784 785 785 785 785 785 785 784 784 783 783 782 781 780 780 778
739 740 738 736 734 733 733 733 733 733 734 734 735 736 736 737 738 738 739 740 740 741 742 742 743 744 745 747 748 748 749 750 751 753 754 755 756 757 757 759 760 761 762 764 765 767 768 768 769 769 769 770 770 770 770 771 771 772 773 774 775 776 777 778 779 779 780 781 782 783 783 784 784 784 784 784 783 783 783 782 782 781 780 779 778
733 733 733 732 731 730 729 730 730 731 731 732 733 734 735 736 736 737 738 739 739 740 741 741 742 743 744 745 746 747 748 749 750 751 752 753 754 755 756 758 759 760 761 762 764 765 765 766 766 766 766 767 767 767 768 768 769 770 771 772 773 773 774 775 776 777 778 779 780 782 782 783 783 783 783 783 782 782 782 781 780 780 779 778 777
729 727 728 727 726 726 726 726 727 728 729 730 730 731 732 733 735 735 736 737 738 739 740 740 741 742 743 744 745 746 747 748 749 750 751 752 753 754 755 757 758 759 760 760 762 762 763 763 764 764 764 765 765 765 765 766 767 768 769 770 771 771 772 773 774 775 777 778 779 780 781 781 782 781 781 782 781 781 781 780 780 779 779 778 777
727 726 725 723 722 722 723 723 724 725 726 727 728 729 730 731 732 733 734 735 736 737 738 739 740 741 742 743 744 745 746 747 748 749 750 751 752 753 754 755 756 757 758 759 760 760 760 760 761 761 761 762 762 762 763 763 764 765 766 767 769 769 770 771 772 774 775 776 777 778 779 780 780 780 780 780 780 780 780 779 779 779 778 777 777
722 724 723 720 720 720 720 721 723 724 725 726 727 727 728 728 728 729 731 733 734 734 735 736 738 739 740 741 742 743 744 745 747 748 749 750 751 752 753 754 755 756 756 757 757 757 757 757 758 758 758 758 759 760 760 760 761 762 763 765 766 767 768 770 771 772 773 774 775 776 777 777 777 778 778 778 778 779 779 778 778 778 777 777 776
720 722 722 722 724 724 724 723 723 723 724 726 726 726 726 726 726 727 728 729 731 732 732 733 735 736 738 739 740 741 742 743 744 745 746 747 749 750 751 752 753 754 754 755 755 755 754 754 754 755 755 755 756 757 758 758 759 760 761 763 764 766 767 768 769 770 770 772 773 773 774 775 775 776 776 776 776 777 777 777 777 776 776 776 775
719 721 723 725 727 728 729 730 728 727 726 726 726 726 725 725 725 726 726 727 728 729 730 731 732 734 736 737 738 739 740 741 742 743 744 745 746 747 748 749 750 750 751 751 752 752 752 752 752 752 753 753 754 755 756 757 758 759 761 762 763 765 766 766 767 767 768 769 770 771 772 772 773 774 774 774 774 775 775 775 775 775 775 775 775
721 724 724 723 723 723 725 727 728 728 727 726 726 725 725 724 724 724 724 724 725 725 726 728 729 731 733 734 736 737 738 739 740 741 742 743 744 745 746 747 747 747 748 748 749 750 750 751 751 751 752 752 753 754 755 756 757 759 760 761 762 763 764 764 765 765 766 767 768 769 770 771 771 772 773 773 773 773 773 773 773 773 774 774 773
722 721 719 719 721 721 721 721 721 723 725 725 724 724 724 723 722 722 722 723 723 723 724 725 727 728 730 731 733 734 736 737 738 739 740 741 741 742 743 744 745 745 746 746 747 748 749 749 750 750 751 752 752 753 754 755 756 757 759 759 760 761 762 762 763 764 764 765 766 767 768 768 769 770 770 771 771 771 771 771 771 771 772 772 772
717 714 712 715 718 720 719 718 718 720 721 721 722 723 722 721 721 721 721 721 721 722 722 723 725 726 726 727 729 731 733 735 736 737 738 738 739 740 741 742 743 743 743 744 745 746 747 748 748 749 749 750 751 752 753 753 754 755 757 757 758 759 760 761 762 763 763 763 764 765 766 766 767 768 768 768 768 768 769 769 769 769 769 768 768
712 710 709 711 714 717 718 719 720 721 722 721 720 720 720 720 719 719 719 719 720 720 720 721 722 722 723 724 726 728 730 731 732 734 735 736 737 738 738 739 740 740 741 742 743 744 744 745 746 746 747 748 749 749 751 751 752 754 755 756 757 758 759 760 761 761 761 762 762 763 764 765 765 766 766 766 766 767 767 767 766 766 766 766 765
709 708 708 709 711 713 715 716 717 719 721 721 719 718 718 717 717 717 717 717 718 718 718 719 719 719 719 721 722 724 726 728 729 731 732 733 734 734 735 736 737 737 738 739 740 741 742 742 743 744 745 746 747 747 749 750 752 753 754 755 756 756 757 758 759 759 759 760 761 761 762 763 764 764 764 764 764 764 764 764 764 764 764 764 764
707 706 707 708 709 709 710 711 713 716 719 720 718 716 715 715 715 715 715 715 716 716 716 717 717 716 717 718 720 722 723 725 726 728 729 730 730 731 732 733 733 734 735 736 737 738 739 739 740 741 742 743 745 746 748 749 750 751 752 753 754 755 755 756 757 757 758 759 760 760 761 761 762 762 762 762 762 762 762 762 762 762 762 762 762
707 706 706 707 707 706 707 709 710 712 715 715 714 713 712 712 712 712 712 713 714 714 714 714 714 713 714 716 718 719 721 723 724 725 725 726 727 728 729 730 730 731 732 733 734 735 736 737 738 739 740 741 743 745 746 747 748 749 750 750 751 752 753 753 754 756 757 757 758 758 759 760 760 760 760 760 760 760 760 760 760 761 761 761 761
706 705 705 706 705 705 705 706 707 708 710 710 711 711 711 711 710 710 710 711 711 711 712 713 712 712 713 715 717 718 719 720 721 722 722 723 724 724 726 727 728 729 730 730 732 733 734 735 736 737 738 740 742 743 744 745 746 747 747 748 749 750 751 751 752 754 755 755 756 756 757 758 758 758 758 758 758 758 758 758 759 759 759 759 759
704 703 702 702 703 703 704 704 705 706 707 707 708 708 709 709 708 708 708 708 708 709 710 712 712 712 712 714 715 716 717 718 719 719 720 720 721 722 723 724 726 727 727 728 729 730 732 733 734 736 737 739 740 741 742 743 744 745 746 746 746 748 749 750 751 752 753 753 754 754 755 755 755 756 756 756 757 757 757 757 758 757 757 757 758
705 704 702 701 700 701 702 702 703 704 704 705 705 706 707 707 707 706 706 706 706 707 709 710 711 711 711 712 713 714 715 716 717 717 718 718 718 719 721 722 723 724 725 726 727 728 729 731 732 734 736 737 738 739 740 741 742 743 744 744 745 746 747 748 749 750 751 751 752 753 753 753 753 754 754 755 755 756 756 756 756 756 755 756 757
703 704 704 702 699 699 700 701 701 702 703 703 703 704 705 705 705 705 705 705 706 706 707 708 709 709 710 710 711 712 713 714 714 715 715 716 716 717 718 719 721 722 723 724 725 726 727 729 731 732 734 735 736 737 738 739 740 741 742 743 744 745 745 746 747 748 749 750 751 751 752 752 752 752 753 753 754 754 754 754 754 754 755 756 756
698 700 701 702 700 699 699 700 701 702 701 701 701 703 704 703 703 703 704 704 705 706 706 706 707 707 708 708 709 709 710 711 712 712 713 713 714 715 716 717 718 720 721 722 723 724 725 727 729 730 731 733 734 735 736 737 738 739 741 742 743 743 744 744 745 746 747 749 750 750 751 751 751 751 752 752 752 753 753 752 753 753 754 755 755
696 697 699 699 699 699 699 699 700 700 699 699 700 702 702 701 701 702 703 703 704 705 705 705 705 705 705 705 706 707 707 708 709 709 710 711 712 713 714 715 716 717 718 720 721 722 723 725 727 728 729 730 732 733 734 734 736 737 739 740 741 742 743 743 744 744 746 747 748 749 750 750 750 751 751 751 751 751 751 751 751 752 753 753 753
695 696 696 695 695 696 697 698 697 696 695 696 699 702 704 703 701 701 701 702 702 702 703 703 703 703 703 703 703 704 705 705 706 707 708 708 709 710 711 713 714 715 716 718 719 720 721 723 725 726 727 728 729 730 731 732 733 735 736 737 739 740 741 742 743 744 745 746 747 748 749 749 749 749 749 749 749 749 749 749 750 750 751 751 752
693 693 694 692 691 692 694 695 695 694 694 696 698 701 703 704 702 700 700 700 700 700 701 701 701 701 701 701 701 702 703 703 705 705 706 707 708 708 709 711 712 713 714 715 716 717 719 721 723 724 724 725 726 727 728 729 731 733 733 734 736 738 739 740 741 742 743 744 746 746 747 747 748 748 748 748 748 748 747 748 748 748 748 749 750
Wind_Speed
21 22 22 20 20 20 19 20 19 18 18 21 23 23 23 22 22 22 22 24 24 21 21 23 23 24 24 24 24 25 26 26 25 24 24 24 25 22 21 22 21 19 19 18 17 18 18 16 14 15 17 15 13 14 15 16 16 12 11 13 14 12 12 10 7 6 9 8 9 13 11 9 11 11 9 8 8 8 10 11 11 12 12 12 14
18 21 22 22 22 21 20 18 18 18 19 21 23 24 23 21 20 20 21 25 27 24 22 23 23 24 25 26 26 25 27 29 27 25 25 25 25 23 22 24 25 22 20 20 19 19 19 19 16 14 15 15 14 14 15 16 15 11 8 12 16 15 14 15 13 9 9 8 7 9 11 9 11 12 11 9 8 8 9 10 11 12 12 13 14
15 16 17 18 19 20 20 19 18 19 20 21 23 24 24 22 20 21 23 25 27 29 28 26 24 24 24 26 27 27 27 29 28 27 27 27 26 24 22 25 29 27 23 21 22 20 19 19 18 15 16 16 16 15 13 14 15 13 12 14 17 17 15 16 17 13 10 9 7 7 9 9 10 12 10 8 9 10 10 10 11 11 12 14 14
14 15 15 15 16 17 17 18 19 19 20 20 22 23 23 22 21 23 25 24 24 27 30 32 29 25 22 23 27 28 26 27 27 27 27 26 27 26 23 24 28 29 25 22 22 22 20 19 18 17 17 17 18 18 16 16 17 17 18 19 19 19 15 12 12 11 8 8 7 8 9 7 6 7 7 8 9 10 10 10 11 12 14 15 14
20 19 19 18 18 17 16 17 17 17 18 18 18 19 20 20 21 23 24 25 24 23 26 32 34 31 25 24 27 28 26 26 27 26 26 25 25 26 24 22 24 26 25 23 22 22 22 21 19 18 19 19 19 19 17 17 18 19 21 22 21 19 15 11 11 12 11 11 11 10 9 9 8 8 9 10 11 12 13 14 14 14 15 15 14
21 21 20 17 15 14 14 15 15 16 16 16 16 17 17 17 19 21 22 24 26 25 25 28 32 33 31 28 28 28 26 25 28 29 28 27 25 24 24 23 22 23 25 24 23 22 22 22 21 20 21 21 20 19 18 19 19 18 18 17 16 15 14 13 13 13 13 13 11 9 9 9 10 10 11 11 12 13 14 14 14 14 14 14 15
18 17 17 15 13 13 14 15 14 14 14 14 14 15 15 16 18 20 23 24 25 26 27 28 30 32 33 33 31 29 26 24 26 29 30 30 28 26 25 24 23 23 24 24 23 23 23 22 23 23 22 22 21 20 20 19 18 18 17 16 15 14 12 12 12 11 11 11 10 11 12 13 13 14 13 13 14 15 16 16 15 15 15 15 15
13 13 13 13 13 14 15 14 12 12 13 13 13 14 15 17 18 20 23 24 25 27 29 30 31 32 34 35 34 32 30 26 25 27 30 31 30 28 26 25 24 23 23 24 23 23 23 23 23 23 22 22 23 21 20 20 19 18 18 16 15 14 13 12 10 10 11 11 11 12 13 13 14 14 13 13 13 14 14 15 16 16 16 15 15
11 11 12 12 13 13 13 12 11 12 12 12 13 14 15 15 17 19 22 24 26 29 30 30 30 31 33 35 35 33 32 30 26 26 29 30 29 27 26 24 25 24 23 23 23 23 23 23 22 22 23 23 24 23 21 21 20 18 16 16 16 15 14 14 12 10 10 11 11 11 12 12 12 12 13 14 15 16 16 17 17 17 16 16 15
10 11 12 12 12 12 11 11 11 12 12 12 13 14 14 14 16 18 20 23 26 28 29 30 30 30 31 33 34 33 32 32 29 27 29 31 29 26 24 23 23 24 22 22 23 23 22 22 22 22 23 23 24 24 23 22 21 17 14 14 14 13 14 14 12 11 10 10 10 11 12 13 14 14 15 16 17 18 19 19 18 17 16 15 15
10 11 11 11 11 11 11 12 12 11 11 12 12 12 13 14 15 16 19 22 25 27 30 32 32 31 30 30 32 34 33 31 29 27 28 30 30 26 24 22 21 22 21 20 21 21 21 22 22 22 22 22 23 23 23 23 23 20 17 16 13 11 12 12 12 11 11 11 12 12 13 14 15 16 17 17 16 16 17 15 14 13 11 10 11
11 11 11 10 11 11 11 11 11 11 11 10 10 10 12 13 14 15 17 20 22 25 31 34 32 31 31 31 32 35 36 31 27 28 29 28 28 26 24 23 21 21 21 20 19 20 20 21 21 21 21 21 21 21 20 21 21 21 21 21 18 15 12 12 12 11 12 13 13 14 14 15 15 16 15 15 14 14 13 12 11 9 8 8 8
11 11 10 10 10 11 11 10 10 10 9 8 9 9 10 11 12 11 13 16 17 18 24 29 29 28 29 30 29 30 34 31 23 24 30 30 27 24 22 21 20 20 21 21 19 17 16 17 19 20 19 19 20 20 19 19 19 21 23 24 24 23 19 17 16 15 16 17 17 17 18 17 17 16 14 13 13 14 13 13 12 10 10 10 11
11 10 10 10 10 10 10 9 9 9 8 7 7 8 9 9 9 8 9 11 11 11 16 22 24 27 27 27 25 24 29 32 25 21 28 31 28 25 21 17 16 17 18 19 19 17 14 12 13 16 16 15 14 15 16 17 16 17 19 20 21 22 22 22 23 24 25 26 25 25 24 22 21 20 17 16 15 15 14 13 12 13 16 17 18
10 9 9 9 9 9 9 8 8 7 7 7 6 6 7 7 6 6 7 7 8 9 13 18 22 25 26 26 26 23 25 31 27 21 25 29 28 28 24 17 13 13 15 16 18 19 16 11 10 11 13 14 13 11 11 12 11 11 14 17 18 18 19 20 21 22 24 25 26 27 28 28 27 26 23 20 19 17 15 14 15 17 19 20 22
9 9 9 9 9 8 8 8 7 6 6 6 6 6 6 5 5 5 5 5 6 7 10 15 19 22 24 24 26 26 27 30 26 19 22 27 26 25 25 21 16 14 13 14 15 17 17 15 13 12 13 17 19 17 15 14 13 14 15 16 17 17 18 18 18 18 19 20 20 21 22 23 24 23 22 20 20 20 18 17 18 19 19 19 21
10 9 9 9 8 8 7 7 7 6 5 6 6 5 5 4 4 4 4 4 4 4 5 9 14 18 19 19 20 22 24 28 24 18 20 24 23 23 22 21 20 18 16 14 13 15 17 18 17 16 16 17 19 20 19 18 16 15 15 15 16 16 17 18 17 17 18 19 21 22 22 22 22 23 23 23 23 23 22 22 21 20 19 17 16
10 9 9 9 8 8 7 7 7 6 5 6 5 4 4 4 3 3 3 3 3 1 1 2 5 10 14 18 20 18 16 20 21 17 17 19 21 21 21 19 19 18 17 14 12 13 15 16 17 18 19 18 18 18 18 18 15 13 14 16 17 18 19 18 16 17 18 19 20 22 24 24 24 25 26 26 26 24 24 24 23 22 20 17 16
10 9 8 8 8 7 7 7 6 6 6 5 5 4 4 4 3 2 2 2 2 1 1 1 3 6 10 14 18 17 14 16 17 16 15 16 18 19 19 18 18 17 15 13 13 14 16 16 17 19 19 20 21 20 19 19 17 15 16 18 21 23 23 21 19 19 20 19 19 21 24 25 25 26 26 26 24 22 22 23 24 23 21 21 20
9 8 8 8 7 7 7 7 7 7 6 5 5 5 4 3 3 2 1 2 2 1 2 2 4 7 8 10 14 15 14 15 17 16 15 15 17 19 20 19 17 15 13 14 15 17 18 19 21 23 24 24 23 22 21 22 20 19 20 22 24 25 24 23 21 20 19 19 19 21 24 24 24 24 24 23 22 22 23 24 24 23 23 24 23
8 8 7 7 8 8 7 7 8 7 7 6 6 5 4 4 3 2 2 3 3 2 3 3 4 7 8 10 14 15 15 16 17 17 17 17 17 19 21 20 16 13 14 17 18 19 20 21 23 25 26 26 25 23 22 23 23 23 24 25 26 25 23 20 19 18 18 18 18 19 21 21 21 22 23 23 24 24 24 24 23 23 24 25 25
9 8 8 8 8 8 7 7 8 7 7 8 7 6 5 4 4 3 2 2 2 3 3 3 3 5 6 8 12 14 15 17 17 17 18 19 18 20 20 18 14 14 17 20 20 20 21 22 23 23 23 23 24 24 24 23 24 25 26 26 24 22 19 18 17 17 18 19 19 20 20 19 20 21 23 24 25 24 24 24 24 26 27 27 27
9 9 10 9 8 8 8 7 7 7 7 8 7 6 6 5 5 4 3 2 2 2 2 2 3 3 3 6 10 14 15 15 16 16 17 18 18 19 20 18 15 15 18 20 20 19 19 21 21 21 21 21 21 21 21 21 22 23 24 24 21 18 16 16 17 17 18 19 19 20 20 20 20 22 23 24 24 25 25 25 26 27 26 25 25
11 10 10 9 9 8 8 8 8 7 8 8 8 7 7 6 7 6 5 5 4 3 3 4 4 5 4 5 8 13 14 15 16 17 18 18 18 19 20 20 19 18 17 18 18 18 18 19 19 19 19 19 18 18 18 19 20 21 22 22 21 19 18 18 18 17 17 18 18 19 20 20 21 22 23 24 22 21 20 21 22 22 21 21 22
12 12 11 10 9 8 8 8 8 7 8 8 9 9 8 8 8 7 7 8 8 7 6 6 7 8 9 7 8 10 12 13 15 16 18 18 18 18 19 19 20 19 18 18 18 20 19 17 15 14 13 12 13 14 14 15 16 18 19 18 18 18 18 18 17 17 17 18 18 19 20 21 21 20 18 17 16 15 16 17 19 20 19 20 21
14 14 13 11 10 9 8 8 8 8 8 8 9 9 9 9 9 8 8 9 9 9 9 9 9 9 11 12 12 10 10 10 12 15 17 17 16 17 17 17 18 19 19 19 19 20 19 16 13 11 10 10 11 12 13 13 13 14 15 17 18 18 18 17 17 18 19 18 18 17 17 17 17 15 12 11 12 13 13 14 16 17 17 17 19
12 12 13 12 12 11 9 8 8 8 7 8 8 9 9 9 9 9 9 9 9 9 9 10 10 10 10 12 14 14 13 12 12 13 15 15 16 17 17 17 18 18 19 19 19 19 18 16 13 10 9 9 9 10 11 12 11 12 13 16 18 19 20 19 19 19 20 18 16 14 12 11 12 12 10 9 10 11 11 12 13 14 15 15 17
15 13 12 12 12 12 11 10 9 9 8 8 8 8 8 8 8 8 10 10 9 9 9 9 9 9 9 10 12 14 14 14 14 14 15 14 14 16 17 18 19 19 20 20 20 19 18 16 14 12 10 10 10 12 13 13 13 14 15 16 17 19 20 20 19 19 18 14 10 9 8 8 9 9 9 9 9 9 10 11 12 13 14 14 15
16 15 14 14 13 13 13 12 11 10 10 9 8 7 6 6 5 5 8 9 9 9 9 9 8 7 7 8 10 11 12 13 13 13 13 14 14 14 15 17 19 20 20 20 18 17 17 17 15 14 14 13 13 14 14 14 15 17 17 16 16 18 20 19 18 16 13 8 6 7 6 6 6 6 7 8 7 7 8 10 11 13 13 14 14
14 17 18 17 15 14 14 13 12 12 11 11 9 8 7 7 5 5 7 9 9 8 7 7 7 7 6 7 8 9 10 10 10 10 11 13 14 13 12 13 15 16 17 18 18 17 17 18 16 14 14 15 14 15 15 15 15 16 17 18 18 18 18 16 13 10 6 3 3 5 4 4 5 6 7 7 7 7 8 9 10 11 11 11 11
18 20 20 18 17 15 14 13 13 13 13 12 12 10 9 9 9 8 7 8 9 9 9 8 7 6 6 7 7 8 8 8 7 9 11 13 14 14 13 13 13 12 13 16 18 17 16 16 15 15 15 16 15 15 15 15 17 18 17 18 19 17 13 10 8 5 4 3 2 1 2 3 4 4 5 6 7 8 9 8 7 8 8 8 9
22 24 21 19 19 18 15 15 15 15 14 13 13 12 10 11 11 11 11 10 10 10 11 10 8 7 8 8 7 7 8 8 7 8 11 13 14 15 15 15 14 12 13 15 17 16 16 16 15 15 16 16 16 17 17 17 20 19 15 14 15 13 10 8 7 7 6 5 5 4 4 4 4 4 4 5 7 8 7 6 5 6 6 6 7
23 24 22 20 20 19 17 15 14 16 16 15 14 13 12 11 11 13 14 14 12 11 11 11 10 9 9 9 8 7 7 8 8 9 11 13 14 15 16 16 15 14 16 17 16 14 15 16 16 16 16 16 18 20 19 15 13 12 10 8 8 8 9 8 7 7 6 6 6 7 7 5 3 4 4 6 6 6 4 4 4 5 6 5 6
28 30 28 22 17 16 18 16 13 14 15 15 14 14 14 13 12 13 15 13 11 12 13 12 12 11 10 11 10 9 8 8 9 11 12 13 14 15 16 16 15 15 17 17 14 12 12 14 15 17 18 17 14 13 11 7 6 7 6 6 5 4 5 6 5 6 6 5 6 8 8 6 5 5 6 6 5 4 3 2 2 4 5 5 6
29 26 19 11 9 8 8 12 12 12 13 14 14 14 14 14 12 12 14 14 12 12 14 15 14 13 12 12 12 11 10 9 9 11 12 12 13 14 14 14 13 13 15 15 14 12 13 13 13 13 12 10 7 6 6 5 5 4 4 5 5 5 5 5 5 6 7 7 7 7 7 6 6 6 6 7 5 4 3 1 0 1 3 4 6
13 8 6 6 10 12 11 11 12 11 11 14 14 13 13 13 12 12 13 15 14 12 13 15 16 15 14 13 13 12 11 10 10 11 11 11 11 12 12 10 10 11 13 14 14 14 13 13 10 8 6 7 7 6 6 6 6 7 8 8 9 10 10 9 9 10 9 8 8 7 7 7 8 7 6 7 6 4 3 2 2 2 3 4 5
8 8 10 14 16 15 12 12 13 14 14 14 15 14 14 13 13 13 13 13 13 11 13 17 18 17 16 16 15 14 13 12 12 12 12 12 13 13 12 10 10 11 12 13 14 14 13 13 11 8 6 7 8 8 8 9 10 10 11 11 11 11 10 10 10 11 10 8 9 9 9 9 9 8 7 7 6 4 4 3 2 3 3 1 3
10 10 16 20 19 18 17 19 18 17 17 17 16 16 15 14 13 13 12 12 11 10 14 18 19 18 18 19 18 16 15 14 14 15 16 16 16 17 16 14 13 12 12 13 14 14 14 13 12 11 9 9 10 11 12 13 13 13 12 12 12 11 10 8 7 8 8 9 11 12 11 11 10 9 8 8 6 4 4 3 3 4 4 3 3
12 17 18 20 21 19 19 20 19 17 17 18 17 16 15 14 13 12 11 11 12 11 13 17 17 16 18 21 21 19 17 17 17 17 18 18 18 18 18 16 14 13 13 14 14 15 14 14 14 14 13 13 14 15 16 15 15 14 13 12 11 11 11 10 9 9 10 13 14 13 11 10 9 9 9 8 5 4 4 4 4 5 6 7 7
19 20 18 20 22 21 19 20 17 13 15 16 17 17 16 15 14 14 13 12 13 13 13 15 15 16 19 23 23 22 21 20 18 17 17 17 18 18 18 17 15 15 15 14 14 16 16 16 16 17 16 16 15 15 14 12 11 11 11 11 10 11 12 12 12 13 14 14 13 11 9 7 7 7 7 5 4 4 4 4 5 6 8 8 9
18 18 17 17 19 20 19 20 19 18 20 20 18 18 17 15 14 14 14 13 13 13 13 14 15 17 20 22 23 24 23 21 18 17 16 17 17 18 18 17 17 16 16 15 15 17 18 17 17 17 16 15 13 12 11 11 11 11 12 11 11 13 13 13 13 14 14 11 9 8 8 7 5 5 4 3 3 5 6 5 4 5 4 2 4
15 16 13 12 16 19 21 21 20 20 23 24 22 20 18 16 16 16 15 14 14 14 14 15 15 16 20 21 21 23 23 20 17 17 17 17 17 18 18 18 18 18 17 15 16 19 20 18 17 16 14 13 12 12 13 14 15 15 14 14 14 15 15 14 14 13 11 9 9 8 7 7 6 5 6 5 3 6 7 6 5 5 2 2 3
14 16 14 14 16 18 19 18 16 17 20 22 21 19 16 15 16 16 15 16 16 16 16 15 14 16 21 21 20 22 23 20 16 17 18 18 19 19 18 18 18 18 18 16 16 17 18 18 16 15 14 13 14 15 15 15 16 15 16 16 15 14 13 13 13 12 9 9 10 8 6 6 5 6 8 8 4 3 5 6 6 5 4 2 5
16 17 16 15 17 18 18 17 16 18 20 20 18 17 16 15 15 16 17 18 19 17 15 12 10 15 22 22 21 24 25 20 17 18 19 19 19 19 18 18 18 17 17 17 15 15 17 17 15 14 14 15 16 17 16 16 16 15 14 14 14 13 12 11 12 12 11 11 11 10 9 9 8 6 8 8 5 2 5 7 6 0 3 4 7
17 18 16 16 17 18 19 18 17 17 18 18 17 17 16 16 16 17 17 17 15 14 14 13 11 15 22 25 24 25 25 20 17 18 19 19 19 18 18 18 18 18 17 17 16 16 17 17 16 15 16 18 20 19 18 17 17 15 13 13 14 13 12 11 10 11 12 11 11 10 9 10 10 7 4 1 2 2 6 8 7 4 3 5 6
14 15 14 15 17 18 19 20 19 16 14 15 16 16 16 17 18 17 16 15 14 14 16 17 14 15 21 25 24 24 22 19 16 17 18 18 18 18 17 18 19 19 19 18 17 17 18 18 17 18 18 19 18 18 17 17 17 16 14 13 12 13 13 13 11 11 10 9 8 7 7 6 6 6 4 3 3 6 9 9 5 4 3 3 4
15 16 14 13 14 15 16 18 19 18 15 14 13 14 16 18 18 17 15 15 15 15 15 17 16 15 16 20 20 20 19 17 16 17 19 20 19 18 17 18 19 18 18 17 18 19 20 20 19 19 20 19 17 16 16 17 17 15 12 11 10 10 12 15 14 12 10 8 8 8 7 5 3 3 5 7 8 10 10 7 5 6 5 4 5
17 17 14 12 13 14 16 17 18 17 16 15 15 17 19 19 17 16 16 15 16 17 16 15 16 16 16 17 18 18 18 17 16 17 18 19 19 17 17 18 19 19 18 18 19 20 22 21 20 19 20 20 18 18 18 19 17 14 12 12 12 11 10 12 15 15 12 9 8 8 7 6 5 6 7 8 9 9 6 4 4 5 7 7 8
16 13 11 12 15 18 20 19 17 14 14 15 17 20 21 19 16 15 16 16 16 18 17 15 15 16 17 17 17 18 18 18 19 19 18 18 17 17 17 19 19 18 19 20 20 20 21 21 20 20 21 21 21 20 19 18 17 16 15 16 17 16 13 11 13 15 14 12 8 6 6 7 8 9 10 10 9 8 7 5 6 8 9 8 9
13 12 13 17 19 20 20 20 19 17 17 18 19 19 19 18 18 17 18 18 17 17 17 17 17 17 15 15 16 17 17 17 17 17 16 16 16 17 18 19 19 20 21 21 20 20 20 20 20 21 22 22 22 22 20 18 17 18 18 19 19 19 18 16 13 13 14 14 11 8 7 7 8 9 10 9 9 10 11 11 11 10 9 8 10
13 13 15 20 24 24 20 19 20 20 18 17 18 18 18 19 20 19 17 17 18 17 17 18 18 17 16 15 15 15 16 16 15 14 14 14 16 18 19 20 20 22 23 22 20 20 20 20 21 23 23 21 20 20 19 18 18 18 19 20 20 20 19 19 18 15 15 15 15 12 9 8 8 8 8 8 9 10 10 9 8 7 7 7 9
Wind_Direction
181 188 198 206 216 221 221 221 218 215 219 223 224 226 227 225 223 223 220 224 231 230 221 220 219 212 209 208 207 205 204 205 205 201 202 204 206 208 208 206 205 204 205 204 208 215 214 213 217 217 216 213 215 226 229 226 236 244 230 230 237 220 199 202 211 234 253 249 217 202 196 191 197 206 215 220 236 241 234 241 251 258 264 265 267
194 195 196 200 208 216 223 225 221 220 223 227 232 233 232 229 227 229 231 229 229 229 226 222 219 214 211 209 209 208 205 204 205 203 202 203 206 208 208 207 206 204 206 208 209 215 216 214 213 213 216 217 218 221 220 220 233 247 234 232 243 235 215 209 207 216 241 254 248 216 190 186 210 212 205 216 239 244 241 244 249 256 263 263 264
200 201 199 202 209 213 217 221 222 223 224 226 230 235 237 236 232 228 230 231 230 229 228 224 221 216 211 208 208 210 208 204 203 204 205 205 204 206 208 209 210 210 210 211 212 215 218 216 215 215 215 217 220 219 220 223 224 230 235 238 243 243 231 217 207 205 222 235 251 243 213 211 223 213 206 226 241 234 235 246 249 253 260 259 258
200 204 203 206 212 215 217 221 223 222 224 228 231 234 237 237 237 232 229 229 231 232 231 229 227 222 217 209 207 210 211 207 204 205 207 206 205 208 210 211 214 214 213 213 213 216 219 217 215 217 217 219 223 223 226 230 224 221 224 227 234 243 246 232 212 207 218 231 242 254 257 267 262 237 237 251 250 246 251 257 257 259 264 264 265
188 194 199 205 210 213 216 221 222 222 226 230 232 236 237 234 235 235 231 229 230 232 233 232 231 229 227 220 209 207 210 209 206 205 205 205 206 210 211 210 210 210 211 215 215 215 218 218 215 215 218 222 228 228 226 231 233 228 222 220 225 233 235 233 227 224 229 232 233 242 256 270 276 270 269 268 262 261 262 261 262 266 268 266 265
179 187 194 205 211 214 217 220 222 224 227 231 233 237 239 236 236 236 235 234 234 234 235 236 235 233 233 231 219 210 212 214 208 205 206 207 207 210 212 212 210 207 210 216 219 219 219 219 218 218 219 221 227 231 228 230 236 238 237 233 227 225 225 228 229 228 228 226 228 242 250 257 267 269 269 269 265 263 266 267 267 268 270 269 268
179 187 191 199 207 215 222 222 220 222 227 232 234 235 235 236 237 237 238 239 237 235 235 238 239 235 234 234 228 220 221 221 212 207 208 208 208 209 210 212 212 211 213 217 219 221 222 221 221 221 221 221 224 230 232 235 238 239 243 245 237 232 236 237 233 232 233 233 240 252 252 251 255 260 263 267 266 264 264 265 264 265 269 273 276
185 188 186 193 202 213 221 223 222 225 231 232 230 231 235 238 240 241 244 245 242 239 238 240 241 237 234 233 231 225 223 224 218 211 209 208 208 209 208 208 210 210 213 216 217 222 225 225 224 222 223 224 225 227 229 234 240 239 238 242 240 236 239 243 244 242 238 239 243 247 249 248 247 252 260 263 263 262 259 258 259 262 265 268 272
188 185 188 199 209 217 221 222 223 227 231 229 227 232 240 246 249 249 250 251 248 245 242 238 236 234 232 232 230 225 223 224 220 212 207 203 200 203 205 206 207 209 213 215 217 221 224 226 228 227 227 228 228 228 230 236 242 240 236 241 241 235 232 235 242 250 250 247 246 251 259 260 258 259 260 258 258 261 263 262 258 259 262 264 266
192 191 197 205 212 220 224 225 227 229 231 230 230 237 246 252 254 255 255 255 254 250 243 236 233 231 229 228 227 224 224 228 224 212 205 201 196 196 200 203 206 209 215 220 221 222 223 226 230 231 233 235 234 233 234 240 247 245 238 240 244 238 231 226 228 239 252 255 252 255 260 260 260 260 260 261 263 264 266 262 258 261 261 257 262
197 200 206 212 213 219 223 226 228 230 234 237 237 242 248 252 256 260 263 263 260 253 242 234 233 231 227 226 226 220 220 227 225 212 205 203 201 200 201 203 206 209 213 219 223 225 226 227 228 232 237 240 240 238 236 239 246 249 246 246 249 244 230 222 225 235 247 254 255 255 257 260 261 261 264 268 269 269 270 269 269 273 270 262 266
203 207 212 216 216 218 223 228 232 234 238 242 245 247 250 254 260 263 266 271 272 261 244 233 232 233 228 227 226 219 216 222 223 213 205 202 201 202 205 207 210 215 218 221 223 225 231 232 229 231 235 238 240 239 239 241 244 247 250 251 254 252 236 221 224 232 239 249 254 254 257 265 269 271 274 279 283 287 290 292 295 297 296 290 282
210 214 217 219 218 220 223 227 236 240 241 246 252 253 254 260 267 271 274 283 288 270 242 230 229 229 225 222 221 215 212 216 219 213 209 206 201 200 204 208 210 214 217 219 221 223 232 238 234 230 232 236 238 238 240 246 248 248 251 254 256 258 254 242 236 239 247 257 263 262 263 268 273 276 279 285 293 301 302 298 295 292 288 286 281
212 216 219 221 220 222 223 227 238 244 244 251 258 260 268 274 277 282 286 290 294 270 236 226 226 224 220 218 216 209 208 212 217 216 212 211 208 202 200 201 204 210 212 214 221 229 238 247 241 232 232 233 234 234 235 240 245 245 247 251 256 260 264 264 262 261 263 264 263 262 261 262 265 269 272 278 286 292 293 288 283 280 281 281 281
214 215 219 224 221 223 225 227 238 245 249 259 264 266 277 284 277 284 296 292 293 280 247 231 226 221 219 219 215 208 205 206 210 219 215 210 209 209 207 204 204 213 218 217 224 232 238 246 246 237 233 233 234 237 238 238 237 234 235 239 245 253 261 268 274 275 274 270 266 264 263 263 265 267 270 275 279 279 280 283 284 284 284 283 283
217 216 220 225 223 225 230 232 238 245 250 257 266 271 278 279 264 279 304 292 289 299 270 247 234 222 216 215 215 216 215 206 203 214 216 209 209 213 215 215 215 220 227 228 230 233 234 237 239 237 238 239 241 246 251 253 246 240 241 241 243 249 251 253 259 266 269 270 268 264 263 263 263 264 267 271 272 271 273 279 282 281 279 278 279
218 217 220 226 227 229 233 234 239 246 250 253 263 271 269 260 256 268 298 297 292 313 290 255 235 221 209 201 201 210 216 211 207 213 212 209 212 215 216 218 222 226 230 231 232 235 237 239 241 241 243 245 246 244 246 252 253 250 252 249 246 250 249 247 251 257 260 265 267 264 259 258 258 260 263 265 267 270 274 276 276 272 269 270 272
216 217 218 220 225 228 230 234 238 244 251 252 257 267 257 244 251 257 265 286 298 293 274 245 218 206 198 195 194 191 197 205 208 207 204 205 210 212 212 215 220 224 225 225 227 232 237 240 240 241 243 248 251 247 241 245 250 252 253 252 250 253 251 248 252 260 263 266 268 266 264 264 266 267 268 267 266 267 268 271 273 269 263 262 264
214 216 218 217 219 220 221 229 236 237 246 251 249 258 255 237 240 252 240 254 280 244 179 137 154 172 181 192 196 195 195 200 200 199 199 203 208 209 209 212 217 219 219 222 229 234 237 239 240 242 245 249 253 252 246 244 246 247 250 251 251 253 255 254 256 260 263 264 266 271 274 275 274 273 271 269 266 265 267 271 274 269 261 262 265
213 212 214 212 214 216 216 220 227 228 234 242 238 240 246 237 240 263 231 205 213 198 176 168 169 172 173 175 181 191 200 198 196 197 198 203 211 212 210 213 216 217 217 225 234 237 239 243 245 246 249 251 253 253 251 248 247 247 248 249 249 252 257 259 258 259 262 263 269 278 281 280 276 272 269 269 269 271 273 273 273 268 262 263 265
214 210 212 210 208 211 213 215 218 219 225 227 219 219 231 230 222 233 221 188 182 185 193 194 178 175 180 179 181 190 199 199 197 196 196 202 209 210 209 212 215 218 222 227 232 234 237 241 244 247 250 252 253 254 252 249 248 247 248 250 253 258 261 262 261 262 263 264 268 275 279 279 278 275 274 274 276 277 275 270 268 267 264 263 264
212 209 209 209 208 208 209 214 214 214 222 223 213 210 222 220 203 199 207 196 190 194 207 228 211 175 177 190 195 200 206 206 203 198 197 203 208 208 209 211 212 216 221 226 231 235 239 243 245 249 252 252 253 255 255 253 250 248 250 252 255 258 259 260 261 263 265 266 267 270 272 273 274 275 276 277 277 276 272 268 267 268 268 268 267
210 213 212 209 207 206 206 213 217 217 218 215 210 213 217 210 199 189 181 184 196 189 187 222 246 226 202 201 203 207 213 216 214 209 206 207 212 214 213 212 211 215 222 229 237 241 242 243 245 249 252 253 254 257 258 255 250 248 249 251 253 254 252 251 253 256 260 263 263 264 266 265 266 269 273 276 279 277 274 271 271 272 275 279 280
205 210 213 211 209 207 204 208 213 218 218 214 214 218 216 205 198 190 181 183 190 200 196 188 197 211 222 227 218 213 213 214 216 219 218 217 217 218 217 214 215 219 225 233 238 240 242 245 250 253 255 254 253 253 252 250 249 248 249 249 251 251 248 246 246 247 248 249 250 252 254 257 262 268 275 282 286 287 284 282 283 285 288 292 293
205 208 211 210 209 206 204 206 207 210 214 216 217 218 216 210 201 193 191 189 188 196 200 191 189 189 187 198 223 228 221 214 213 220 224 223 221 219 217 216 215 218 223 228 232 235 239 245 250 249 245 242 240 238 239 242 243 244 245 246 247 245 244 244 243 242 241 242 244 248 253 259 266 272 281 291 297 299 299 298 299 301 302 301 300
204 205 207 208 208 207 204 204 206 208 210 216 222 224 222 215 203 196 202 202 196 197 193 187 196 196 181 180 195 208 215 215 216 222 225 224 222 220 217 215 215 216 220 225 229 232 234 236 240 236 229 231 234 236 237 239 240 240 241 241 242 240 239 239 238 237 239 242 245 251 258 266 273 278 286 298 303 302 303 305 305 305 306 306 306
232 217 210 207 206 205 204 205 207 209 208 212 222 227 228 224 209 200 205 207 206 208 200 188 196 203 188 178 181 183 190 201 208 214 217 218 219 219 215 212 212 213 216 221 225 228 229 232 235 235 233 232 234 236 239 237 236 238 238 238 241 240 237 235 234 235 238 241 246 254 261 270 280 285 289 296 300 301 305 312 314 313 313 313 309
253 240 227 220 212 204 204 208 208 207 208 212 220 224 224 227 227 218 215 212 207 210 212 202 201 204 193 182 177 175 181 191 196 200 205 206 208 211 211 210 210 212 214 216 219 222 225 228 231 233 234 236 236 237 237 235 235 240 243 244 245 243 238 234 234 234 235 237 245 255 265 274 284 292 295 295 297 302 307 312 315 316 317 316 311
246 249 239 230 220 207 203 207 209 208 206 204 206 209 210 219 232 223 214 215 212 215 222 218 212 208 197 189 186 181 187 197 198 197 200 201 200 202 205 206 209 215 218 216 212 212 217 221 224 228 233 237 237 233 232 233 234 236 238 238 239 239 236 232 227 224 222 225 239 251 262 276 287 293 294 294 298 308 314 317 318 317 315 312 310
235 247 244 233 222 209 201 205 208 206 205 201 196 202 217 228 229 210 204 213 216 215 218 219 214 208 198 195 195 192 196 205 204 198 199 200 198 198 198 199 204 211 215 211 204 204 210 213 216 220 225 228 228 228 228 228 225 225 228 231 231 231 227 222 216 211 209 219 233 236 247 265 276 284 292 300 314 319 312 309 309 308 309 314 320
218 232 238 232 225 215 205 205 206 202 204 203 195 194 208 218 221 218 215 218 221 221 219 218 218 213 205 205 208 201 198 203 202 198 199 199 199 200 201 198 197 200 203 199 197 201 207 209 212 220 223 223 225 227 226 224 224 226 229 230 227 222 215 211 206 200 208 231 229 237 291 285 276 282 295 306 311 303 296 298 306 309 313 324 335
222 230 232 226 225 222 210 204 201 197 199 202 197 193 194 196 202 213 217 216 220 229 232 229 225 216 207 210 218 214 208 207 198 189 191 194 196 198 197 196 197 201 198 191 192 202 207 207 214 223 224 224 227 229 229 229 227 224 219 215 211 202 191 188 187 185 197 219 230 248 276 280 271 278 288 287 283 284 292 306 319 324 329 337 343
228 237 235 225 221 218 212 207 202 195 193 196 197 197 201 199 193 198 208 213 214 219 226 229 226 217 207 206 210 209 207 206 199 190 189 192 194 194 193 192 194 197 191 186 192 209 214 213 219 225 225 227 228 228 228 225 212 195 184 179 174 159 152 158 171 183 199 216 219 225 238 250 250 254 264 267 268 277 300 320 325 334 343 346 344
228 234 234 229 222 211 203 206 211 203 196 198 197 195 206 219 210 190 188 199 207 210 214 217 217 215 212 209 208 207 206 203 197 192 190 189 188 188 188 186 184 186 187 188 198 219 227 222 221 222 222 223 219 212 207 190 156 149 154 156 150 146 153 163 174 183 187 196 210 217 221 224 227 231 241 251 253 257 273 298 333 346 350 351 346
231 236 240 254 283 278 235 223 224 212 200 206 210 203 206 222 224 197 180 184 194 201 205 208 210 211 212 211 211 212 213 209 200 194 190 185 180 176 175 175 177 184 193 199 207 223 237 237 231 223 215 205 185 170 164 156 156 170 176 178 194 208 201 195 201 200 195 199 212 215 208 206 214 225 236 239 232 220 221 220 86 11 6 2 348
252 282 314 296 289 299 302 286 268 248 223 214 218 218 216 219 223 214 198 194 195 190 188 197 205 206 206 211 213 212 212 209 204 200 196 190 184 180 177 182 192 198 203 210 215 222 233 243 248 243 214 187 181 186 186 183 191 200 200 205 211 214 216 219 213 199 191 195 207 210 206 207 211 216 225 231 226 205 192 189 170 123 68 15 342
27 344 290 251 235 233 240 247 253 257 248 230 222 224 225 222 225 224 216 212 210 191 176 185 195 196 198 207 210 207 207 205 201 199 196 191 190 192 193 205 219 216 208 210 215 219 225 232 239 238 218 198 197 201 200 201 204 202 202 206 206 204 207 208 197 186 185 196 206 208 206 207 207 207 215 226 224 198 182 186 156 119 104 38 346
24 301 263 246 234 224 219 219 223 235 242 234 226 227 227 225 229 230 224 222 221 198 177 183 191 192 196 202 203 202 202 198 194 195 197 196 198 201 204 215 229 229 217 211 211 213 218 223 225 225 219 208 202 203 207 208 204 200 202 206 205 203 203 201 198 201 207 212 212 208 205 207 206 203 213 224 219 193 183 182 151 138 153 172 154
300 277 258 246 234 225 227 230 227 230 234 229 226 230 229 223 225 231 229 225 223 208 187 183 187 192 198 201 197 193 191 191 193 197 201 203 206 208 208 215 226 230 225 220 213 209 212 217 218 219 219 215 210 208 211 208 200 197 202 202 198 203 213 217 214 212 214 216 215 208 202 205 202 202 215 225 209 183 189 190 174 177 189 190 178
282 275 268 255 236 226 237 246 245 250 251 238 226 228 228 221 218 223 226 226 226 220 204 192 190 195 201 204 201 194 190 191 195 198 201 206 211 211 211 215 222 227 229 226 216 209 210 213 213 213 216 218 213 206 204 202 192 190 199 200 192 197 210 214 212 214 219 222 215 198 190 198 203 206 215 210 182 188 213 217 214 214 209 201 190
276 271 265 250 228 219 230 238 236 242 250 246 235 228 225 219 218 221 223 225 227 226 220 216 210 204 204 208 211 207 200 196 197 200 201 204 208 210 211 215 219 222 226 226 215 209 211 216 216 212 209 206 201 194 195 200 198 194 198 203 205 205 206 207 211 216 219 216 205 189 184 187 193 200 198 184 198 225 227 223 232 238 232 218 185
260 259 252 234 217 213 219 225 224 227 236 238 234 229 223 218 218 221 221 222 226 226 225 225 221 210 205 209 213 210 205 200 199 202 205 206 208 210 212 216 218 220 224 225 215 210 214 220 217 206 196 190 189 193 198 203 203 199 196 200 209 214 210 203 204 209 208 199 194 191 184 180 190 206 204 200 237 252 237 233 246 241 227 32 45
240 247 241 226 217 217 223 229 230 228 232 234 230 226 225 222 221 221 220 220 222 227 228 229 220 205 200 203 205 205 204 204 205 209 211 211 211 211 213 217 221 222 224 225 220 215 217 218 207 192 189 192 196 199 203 206 208 208 204 200 204 213 215 203 192 192 197 196 191 189 190 191 204 222 217 206 217 264 261 261 258 215 173 44 3
227 235 233 224 220 219 221 229 234 234 236 238 233 228 227 226 224 226 226 222 220 221 228 236 222 193 189 193 197 200 203 207 212 217 220 219 217 216 216 219 223 224 222 223 222 217 214 211 200 189 192 200 201 200 203 207 209 213 213 205 198 203 214 208 186 182 198 205 194 190 199 201 202 229 239 216 200 248 286 293 303 341 98 18 352
226 229 224 218 219 218 218 225 236 239 237 233 229 226 226 227 228 232 234 230 219 210 216 230 224 189 182 188 195 199 203 210 218 223 226 226 224 222 220 219 222 223 221 221 219 212 206 205 202 197 199 205 205 202 204 210 214 217 221 214 200 195 206 212 196 188 201 208 195 193 211 212 203 215 243 196 117 305 282 280 293 323 14 0 344
244 247 234 219 218 220 222 230 240 247 246 237 228 224 226 229 231 232 236 237 229 212 209 217 218 195 183 188 195 200 204 210 218 225 230 232 228 224 222 221 222 222 220 219 217 208 200 200 201 201 205 211 208 200 201 213 222 224 223 216 203 195 200 210 208 198 198 202 198 206 234 241 214 207 223 234 253 261 254 251 272 319 339 325 314
259 256 248 237 227 221 224 235 244 250 253 251 241 232 230 232 231 229 229 233 236 233 222 215 212 203 190 185 190 197 204 211 219 226 228 230 228 224 220 220 221 219 217 217 215 208 202 200 200 201 206 214 213 206 207 217 222 221 216 209 203 203 205 204 201 196 192 195 204 216 240 268 264 226 229 238 242 246 249 261 301 329 327 310 301
252 238 234 246 248 238 233 237 241 245 249 254 255 248 240 234 230 229 227 225 230 239 239 225 214 213 207 197 194 198 202 209 220 226 227 227 226 220 215 217 220 218 215 214 211 204 200 200 202 204 207 212 213 213 215 217 214 213 214 211 212 220 215 193 183 184 186 189 198 212 228 243 249 246 250 254 254 256 263 282 305 306 302 302 299
252 237 227 238 250 252 249 244 242 246 248 250 255 256 249 239 229 228 230 229 227 230 235 234 227 223 218 209 206 208 208 209 215 220 222 222 220 215 214 216 217 215 214 213 208 200 196 198 202 206 211 216 218 216 214 209 204 205 213 215 215 220 221 200 181 181 187 189 192 205 220 229 239 248 254 256 257 261 266 261 256 260 267 275 282
239 239 235 236 242 249 250 245 242 241 235 231 239 252 256 252 241 230 228 231 231 227 226 231 235 236 230 219 212 213 215 215 218 220 221 220 217 214 215 217 216 215 215 213 207 199 197 199 204 209 215 220 219 212 207 206 205 208 213 215 214 216 220 219 211 206 207 208 209 212 222 236 248 255 258 257 254 255 256 251 244 243 246 254 270
243 236 231 235 241 244 244 240 238 235 226 222 232 246 257 259 252 237 225 227 233 231 226 224 226 231 235 229 220 216 215 218 222 225 225 222 217 212 211 214 216 216 215 211 203 196 196 200 207 214 219 220 213 204 200 204 210 214 216 215 212 213 217 222 224 226 227 226 222 217 218 234 250 257 263 265 262 262 266 266 254 239 238 251 269